Time,TemperatureF,DewpointF,PressureIn,WindDirection,WindDirectionDegrees,WindSpeedMPH,WindSpeedGustMPH,Humidity,HourlyPrecipIn,Conditions,Clouds,dailyrainin,SoftwareType,DateUTC
2013-02-04 00:02:00,22.0,19.0,-100.00,East,100,7.0,11.0,86,0.00,,,-99.99,,2013-02-04 06:02:00,
2013-02-04 00:11:00,22.0,19.0,-100.00,ESE,110,7.0,9.0,86,0.00,,,-99.99,,2013-02-04 06:11:00,
2013-02-04 00:21:00,22.0,19.0,-100.00,ESE,105,6.0,11.0,86,0.00,,,-99.99,,2013-02-04 06:21:00,
2013-02-04 00:32:00,22.0,19.0,-100.00,ESE,105,6.0,11.0,86,0.00,,,-99.99,,2013-02-04 06:32:00,
2013-02-04 00:41:00,22.0,19.0,-100.00,ESE,115,6.0,9.0,86,0.00,,,-99.99,,2013-02-04 06:41:00,
2013-02-04 00:51:00,23.0,19.0,-100.00,ESE,105,6.0,9.0,86,0.00,,,-99.99,,2013-02-04 06:51:00,
2013-02-04 01:02:00,23.0,19.0,-100.00,ESE,105,6.0,9.0,86,0.00,,,-99.99,,2013-02-04 07:02:00,
2013-02-04 01:11:00,23.0,19.0,-100.00,ESE,105,6.0,9.0,86,0.00,,,-99.99,,2013-02-04 07:11:00,
2013-02-04 01:21:00,23.0,19.0,-100.00,ESE,120,7.0,11.0,85,0.00,,,-99.99,,2013-02-04 07:21:00,
2013-02-04 01:32:00,23.0,19.0,-100.00,East,100,7.0,11.0,85,0.00,,,-99.99,,2013-02-04 07:32:00,
2013-02-04 01:41:00,23.0,19.0,-100.00,East,100,7.0,11.0,85,0.00,,,-99.99,,2013-02-04 07:41:00,
2013-02-04 01:52:00,23.0,20.0,-100.00,East,100,6.0,12.0,85,0.00,,,-99.99,,2013-02-04 07:52:00,
2013-02-04 02:01:00,23.0,20.0,-100.00,East,100,6.0,12.0,85,0.00,,,-99.99,,2013-02-04 08:01:00,
2013-02-04 02:11:00,24.0,20.0,-100.00,East,100,10.0,12.0,85,0.00,,,-99.99,,2013-02-04 08:11:00,
2013-02-04 02:21:00,24.0,20.0,-100.00,East,100,9.0,14.0,85,0.00,,,-99.99,,2013-02-04 08:21:00,
2013-02-04 02:31:00,24.0,20.0,-100.00,ESE,110,9.0,12.0,85,0.00,,,-99.99,,2013-02-04 08:31:00,
2013-02-04 02:42:00,24.0,20.0,-100.00,ESE,105,7.0,11.0,85,0.00,,,-99.99,,2013-02-04 08:42:00,
2013-02-04 02:52:00,24.0,20.0,-100.00,ESE,110,6.0,12.0,84,0.00,,,-99.99,,2013-02-04 08:52:00,
2013-02-04 03:02:00,24.0,20.0,-100.00,ESE,110,6.0,12.0,84,0.00,,,-99.99,,2013-02-04 09:02:00,
2013-02-04 03:11:00,25.0,20.0,-100.00,ESE,115,6.0,13.0,82,0.00,,,-99.99,,2013-02-04 09:11:00,
2013-02-04 03:21:00,25.0,20.0,-100.00,SE,125,7.0,13.0,82,0.00,,,-99.99,,2013-02-04 09:21:00,
2013-02-04 03:31:00,25.0,20.0,-100.00,ESE,105,7.0,9.0,80,0.00,,,-99.99,,2013-02-04 09:31:00,
2013-02-04 03:41:00,25.0,20.0,-100.00,ESE,120,9.0,11.0,79,0.00,,,-99.99,,2013-02-04 09:41:00,
2013-02-04 03:51:00,26.0,20.0,-100.00,East,100,6.0,9.0,79,0.00,,,-99.99,,2013-02-04 09:51:00,
2013-02-04 04:01:00,26.0,20.0,-100.00,East,100,6.0,9.0,79,0.00,,,-99.99,,2013-02-04 10:01:00,
2013-02-04 04:11:00,26.0,20.0,-100.00,SE,125,7.0,10.0,79,0.00,,,-99.99,,2013-02-04 10:11:00,
2013-02-04 04:21:00,26.0,20.0,-100.00,East,95,6.0,9.0,79,0.00,,,-99.99,,2013-02-04 10:21:00,
2013-02-04 04:32:00,26.0,20.0,-100.00,East,100,9.0,11.0,79,0.00,,,-99.99,,2013-02-04 10:32:00,
2013-02-04 04:41:00,26.0,20.0,-100.00,ESE,115,6.0,11.0,79,0.00,,,-99.99,,2013-02-04 10:41:00,
2013-02-04 04:51:00,26.0,21.0,-100.00,ESE,110,7.0,9.0,82,0.00,,,-99.99,,2013-02-04 10:51:00,
2013-02-04 05:02:00,26.0,21.0,-100.00,ESE,110,7.0,9.0,82,0.00,,,-99.99,,2013-02-04 11:02:00,
2013-02-04 05:11:00,26.0,21.0,-100.00,ESE,105,7.0,11.0,83,0.00,,,-99.99,,2013-02-04 11:11:00,
2013-02-04 05:22:00,26.0,21.0,-100.00,East,100,7.0,11.0,83,0.00,,,-99.99,,2013-02-04 11:22:00,
2013-02-04 05:32:00,26.0,21.0,-100.00,East,100,4.0,8.0,84,0.00,,,-99.99,,2013-02-04 11:32:00,
2013-02-04 05:42:00,26.0,21.0,-100.00,East,90,4.0,9.0,84,0.00,,,-99.99,,2013-02-04 11:42:00,
2013-02-04 05:52:00,25.0,21.0,-100.00,East,80,6.0,7.0,84,0.00,,,-99.99,,2013-02-04 11:52:00,
2013-02-04 06:02:00,25.0,21.0,-100.00,East,80,6.0,8.0,85,0.00,,,-99.99,,2013-02-04 12:02:00,
2013-02-04 06:12:00,25.0,21.0,-100.00,ENE,75,6.0,9.0,86,0.00,,,-99.99,,2013-02-04 12:12:00,
2013-02-04 06:21:00,24.0,21.0,-100.00,ENE,65,6.0,8.0,86,0.00,,,-99.99,,2013-02-04 12:21:00,
2013-02-04 06:32:00,24.0,21.0,-100.00,ENE,60,6.0,9.0,86,0.00,,,-99.99,,2013-02-04 12:32:00,
2013-02-04 06:42:00,24.0,20.0,-100.00,NE,50,6.0,9.0,86,0.00,,,-99.99,,2013-02-04 12:42:00,
2013-02-04 06:52:00,23.0,20.0,-100.00,NE,45,7.0,9.0,87,0.00,,,-99.99,,2013-02-04 12:52:00,
2013-02-04 07:02:00,23.0,20.0,-100.00,NE,40,7.0,9.0,87,0.00,,,-99.99,,2013-02-04 13:02:00,
2013-02-04 07:12:00,22.0,19.0,-100.00,NE,40,7.0,11.0,87,0.00,,,-99.99,,2013-02-04 13:12:00,
2013-02-04 07:21:00,22.0,19.0,-100.00,NE,40,7.0,11.0,87,0.00,,,-99.99,,2013-02-04 13:21:00,
2013-02-04 07:33:00,21.0,18.0,-100.00,NNE,25,9.0,12.0,88,0.00,,,-99.99,,2013-02-04 13:33:00,
2013-02-04 07:42:00,21.0,18.0,-100.00,NNE,25,9.0,12.0,88,0.00,,,-99.99,,2013-02-04 13:42:00,
2013-02-04 07:51:00,21.0,19.0,-100.00,NE,35,11.0,12.0,92,0.00,,,-99.99,,2013-02-04 13:51:00,
2013-02-04 08:03:00,21.0,20.0,-100.00,NNE,25,11.0,16.0,93,0.00,,,-99.99,,2013-02-04 14:03:00,
2013-02-04 08:11:00,22.0,20.0,-100.00,NE,35,12.0,17.0,94,0.00,,,-99.99,,2013-02-04 14:11:00,
2013-02-04 08:22:00,22.0,21.0,-100.00,NE,35,11.0,16.0,95,0.00,,,-99.99,,2013-02-04 14:22:00,
2013-02-04 08:32:00,23.0,22.0,-100.00,NE,45,11.0,14.0,95,0.00,,,-99.99,,2013-02-04 14:32:00,
2013-02-04 08:42:00,23.0,22.0,-100.00,NE,45,11.0,14.0,95,0.00,,,-99.99,,2013-02-04 14:42:00,
2013-02-04 08:52:00,23.0,22.0,-100.00,NE,35,11.0,15.0,95,0.00,,,-99.99,,2013-02-04 14:52:00,
2013-02-04 09:03:00,23.0,22.0,-100.00,NE,40,13.0,19.0,95,0.00,,,-99.99,,2013-02-04 15:03:00,
2013-02-04 09:12:00,23.0,22.0,-100.00,NNE,30,12.0,19.0,95,0.00,,,-99.99,,2013-02-04 15:12:00,
2013-02-04 09:23:00,23.0,22.0,-100.00,NE,35,11.0,15.0,94,0.00,,,-99.99,,2013-02-04 15:23:00,
2013-02-04 09:33:00,23.0,22.0,-100.00,NNE,30,14.0,19.0,94,0.00,,,-99.99,,2013-02-04 15:33:00,
2013-02-04 09:43:00,22.0,21.0,-100.00,NNE,30,13.0,21.0,94,0.00,,,-99.99,,2013-02-04 15:43:00,
2013-02-04 09:52:00,22.0,21.0,-100.00,NNE,25,12.0,20.0,94,0.00,,,-99.99,,2013-02-04 15:52:00,
2013-02-04 10:03:00,22.0,21.0,-100.00,NNE,30,13.0,20.0,94,0.00,,,-99.99,,2013-02-04 16:03:00,
2013-02-04 10:11:00,22.0,20.0,-100.00,North,5,13.0,19.0,94,0.00,,,-99.99,,2013-02-04 16:11:00,
2013-02-04 10:22:00,21.0,20.0,-100.00,North,5,12.0,21.0,93,0.00,,,-99.99,,2013-02-04 16:22:00,
2013-02-04 10:33:00,21.0,20.0,-100.00,North,10,16.0,20.0,93,0.00,,,-99.99,,2013-02-04 16:33:00,
2013-02-04 10:42:00,22.0,20.0,-100.00,NNE,20,13.0,20.0,92,0.00,,,-99.99,,2013-02-04 16:42:00,
2013-02-04 10:51:00,22.0,20.0,-100.00,NNE,20,13.0,21.0,91,0.00,,,-99.99,,2013-02-04 16:51:00,
2013-02-04 11:02:00,22.0,20.0,-100.00,NNE,20,13.0,21.0,91,0.00,,,-99.99,,2013-02-04 17:02:00,
2013-02-04 11:11:00,24.0,21.0,-100.00,NNE,20,9.0,19.0,90,0.00,,,-99.99,,2013-02-04 17:11:00,
2013-02-04 11:21:00,23.0,20.0,-100.00,NNE,15,11.0,19.0,89,0.00,,,-99.99,,2013-02-04 17:21:00,
2013-02-04 11:32:00,23.0,20.0,-100.00,NE,40,15.0,19.0,88,0.00,,,-99.99,,2013-02-04 17:32:00,
2013-02-04 11:42:00,23.0,20.0,-100.00,NNE,30,13.0,16.0,87,0.00,,,-99.99,,2013-02-04 17:42:00,
2013-02-04 11:51:00,22.0,19.0,-100.00,NNE,20,14.0,19.0,87,0.00,,,-99.99,,2013-02-04 17:51:00,
2013-02-04 12:03:00,22.0,19.0,-100.00,NNE,20,14.0,19.0,87,0.00,,,-99.99,,2013-02-04 18:03:00,
2013-02-04 12:11:00,23.0,20.0,-100.00,North,10,13.0,17.0,86,0.00,,,-99.99,,2013-02-04 18:11:00,
2013-02-04 12:22:00,22.0,19.0,-100.00,North,5,16.0,21.0,86,0.00,,,-99.99,,2013-02-04 18:22:00,
2013-02-04 12:32:00,23.0,19.0,-100.00,North,0,13.0,19.0,85,0.00,,,-99.99,,2013-02-04 18:32:00,
2013-02-04 12:41:00,24.0,20.0,-100.00,North,5,10.0,16.0,84,0.00,,,-99.99,,2013-02-04 18:41:00,
2013-02-04 12:52:00,24.0,19.0,-100.00,North,0,11.0,14.0,82,0.00,,,-99.99,,2013-02-04 18:52:00,
2013-02-04 13:02:00,24.0,19.0,-100.00,NNE,15,11.0,17.0,82,0.00,,,-99.99,,2013-02-04 19:02:00,
2013-02-04 13:11:00,24.0,20.0,-100.00,North,0,14.0,17.0,81,0.00,,,-99.99,,2013-02-04 19:11:00,
2013-02-04 13:22:00,24.0,19.0,-100.00,North,355,12.0,17.0,80,0.00,,,-99.99,,2013-02-04 19:22:00,
2013-02-04 13:32:00,23.0,18.0,-100.00,North,0,14.0,19.0,81,0.00,,,-99.99,,2013-02-04 19:32:00,
2013-02-04 13:42:00,23.0,18.0,-100.00,North,350,10.0,18.0,80,0.00,,,-99.99,,2013-02-04 19:42:00,
2013-02-04 13:51:00,23.0,18.0,-100.00,North,0,13.0,17.0,80,0.00,,,-99.99,,2013-02-04 19:51:00,
2013-02-04 14:02:00,23.0,18.0,-100.00,North,0,13.0,17.0,80,0.00,,,-99.99,,2013-02-04 20:02:00,
2013-02-04 14:12:00,23.0,18.0,-100.00,North,0,13.0,17.0,80,0.00,,,-99.99,,2013-02-04 20:12:00,
2013-02-04 14:21:00,25.0,19.0,-100.00,North,0,11.0,14.0,79,0.00,,,-99.99,,2013-02-04 20:21:00,
2013-02-04 14:32:00,25.0,19.0,-100.00,NNE,25,7.0,15.0,78,0.00,,,-99.99,,2013-02-04 20:32:00,
2013-02-04 14:42:00,24.0,18.0,-100.00,NNE,30,7.0,14.0,77,0.00,,,-99.99,,2013-02-04 20:42:00,
2013-02-04 14:52:00,24.0,18.0,-100.00,NNE,25,11.0,14.0,77,0.00,,,-99.99,,2013-02-04 20:52:00,
2013-02-04 15:02:00,24.0,18.0,-100.00,North,5,9.0,14.0,77,0.00,,,-99.99,,2013-02-04 21:02:00,
2013-02-04 15:11:00,25.0,19.0,-100.00,NNE,25,8.0,12.0,77,0.00,,,-99.99,,2013-02-04 21:11:00,
2013-02-04 15:22:00,24.0,18.0,-100.00,North,0,9.0,11.0,77,0.00,,,-99.99,,2013-02-04 21:22:00,
2013-02-04 15:32:00,24.0,18.0,-100.00,North,0,7.0,12.0,77,0.00,,,-99.99,,2013-02-04 21:32:00,
2013-02-04 15:42:00,24.0,18.0,-100.00,North,5,7.0,12.0,77,0.00,,,-99.99,,2013-02-04 21:42:00,
2013-02-04 15:51:00,24.0,18.0,-100.00,NNE,15,6.0,11.0,75,0.00,,,-99.99,,2013-02-04 21:51:00,
2013-02-04 16:02:00,24.0,18.0,-100.00,NNE,15,6.0,11.0,75,0.00,,,-99.99,,2013-02-04 22:02:00,
2013-02-04 16:12:00,24.0,17.0,-100.00,NNE,20,6.0,11.0,74,0.00,,,-99.99,,2013-02-04 22:12:00,
2013-02-04 16:21:00,24.0,17.0,-100.00,North,0,7.0,10.0,74,0.00,,,-99.99,,2013-02-04 22:21:00,
2013-02-04 16:32:00,23.0,16.0,-100.00,North,0,7.0,10.0,74,0.00,,,-99.99,,2013-02-04 22:32:00,
2013-02-04 16:41:00,22.0,16.0,-100.00,NNW,335,6.0,9.0,74,0.00,,,-99.99,,2013-02-04 22:41:00,
2013-02-04 16:51:00,22.0,16.0,-100.00,NNW,345,7.0,9.0,75,0.00,,,-99.99,,2013-02-04 22:51:00,
2013-02-04 17:01:00,22.0,16.0,-100.00,NNW,345,6.0,9.0,75,0.00,,,-99.99,,2013-02-04 23:01:00,
2013-02-04 17:11:00,22.0,15.0,-100.00,NNW,340,7.0,9.0,75,0.00,,,-99.99,,2013-02-04 23:11:00,
2013-02-04 17:21:00,21.0,15.0,-100.00,NNW,335,6.0,9.0,76,0.00,,,-99.99,,2013-02-04 23:21:00,
2013-02-04 17:32:00,20.0,15.0,-100.00,NNW,335,6.0,9.0,79,0.00,,,-99.99,,2013-02-04 23:32:00,
2013-02-04 17:41:00,20.0,15.0,-100.00,NNW,345,7.0,9.0,79,0.00,,,-99.99,,2013-02-04 23:41:00,
2013-02-04 17:52:00,19.0,14.0,-100.00,NNW,335,4.0,8.0,80,0.00,,,-99.99,,2013-02-04 23:52:00,
2013-02-04 18:01:00,19.0,15.0,-100.00,NNW,335,4.0,6.0,81,0.00,,,-99.99,,2013-02-05 00:01:00,
2013-02-04 18:11:00,18.0,14.0,-100.00,North,350,3.0,4.0,82,0.00,,,-99.99,,2013-02-05 00:11:00,
2013-02-04 18:21:00,18.0,14.0,-100.00,North,355,3.0,6.0,83,0.00,,,-99.99,,2013-02-05 00:21:00,
2013-02-04 18:31:00,18.0,15.0,-100.00,North,0,5.0,6.0,84,0.00,,,-99.99,,2013-02-05 00:31:00,
2013-02-04 18:42:00,18.0,15.0,-100.00,North,0,5.0,6.0,84,0.00,,,-99.99,,2013-02-05 00:42:00,
2013-02-04 18:51:00,18.0,14.0,-100.00,North,355,6.0,7.0,84,0.00,,,-99.99,,2013-02-05 00:51:00,
2013-02-04 19:01:00,17.0,14.0,-100.00,North,0,6.0,7.0,84,0.00,,,-99.99,,2013-02-05 01:01:00,
2013-02-04 19:11:00,18.0,14.0,-100.00,North,355,5.0,7.0,84,0.00,,,-99.99,,2013-02-05 01:11:00,
2013-02-04 19:22:00,17.0,14.0,-100.00,North,0,6.0,6.0,84,0.00,,,-99.99,,2013-02-05 01:22:00,
2013-02-04 19:32:00,18.0,14.0,-100.00,North,0,5.0,6.0,84,0.00,,,-99.99,,2013-02-05 01:32:00,
2013-02-04 19:42:00,18.0,14.0,-100.00,North,5,4.0,6.0,84,0.00,,,-99.99,,2013-02-05 01:42:00,
2013-02-04 19:51:00,18.0,14.0,-100.00,North,0,4.0,6.0,83,0.00,,,-99.99,,2013-02-05 01:51:00,
2013-02-04 20:01:00,18.0,13.0,-100.00,North,10,4.0,7.0,83,0.00,,,-99.99,,2013-02-05 02:01:00,
2013-02-04 20:11:00,18.0,13.0,-100.00,NE,35,3.0,6.0,82,0.00,,,-99.99,,2013-02-05 02:11:00,
2013-02-04 20:21:00,17.0,13.0,-100.00,NNE,25,3.0,5.0,82,0.00,,,-99.99,,2013-02-05 02:21:00,
2013-02-04 20:32:00,17.0,13.0,-100.00,NNE,25,3.0,5.0,82,0.00,,,-99.99,,2013-02-05 02:32:00,
2013-02-04 20:42:00,17.0,13.0,-100.00,NNE,25,3.0,5.0,82,0.00,,,-99.99,,2013-02-05 02:42:00,
2013-02-04 20:52:00,16.0,12.0,-100.00,North,10,4.0,6.0,83,0.00,,,-99.99,,2013-02-05 02:52:00,
2013-02-04 21:02:00,16.0,12.0,-100.00,ENE,75,1.0,4.0,83,0.00,,,-99.99,,2013-02-05 03:02:00,
2013-02-04 21:11:00,16.0,12.0,-100.00,ENE,70,1.0,2.0,84,0.00,,,-99.99,,2013-02-05 03:11:00,
2013-02-04 21:21:00,14.0,11.0,-100.00,SSW,210,1.0,2.0,84,0.00,,,-99.99,,2013-02-05 03:21:00,
2013-02-04 21:32:00,13.0,9.0,-100.00,South,185,2.0,3.0,86,0.00,,,-99.99,,2013-02-05 03:32:00,
2013-02-04 21:42:00,13.0,9.0,-100.00,South,185,2.0,3.0,86,0.00,,,-99.99,,2013-02-05 03:42:00,
2013-02-04 21:51:00,13.0,10.0,-100.00,SE,140,1.0,2.0,87,0.00,,,-99.99,,2013-02-05 03:51:00,
2013-02-04 22:01:00,13.0,11.0,-100.00,ENE,65,1.0,2.0,88,0.00,,,-99.99,,2013-02-05 04:01:00,
2013-02-04 22:11:00,13.0,11.0,-100.00,East,90,2.0,3.0,89,0.00,,,-99.99,,2013-02-05 04:11:00,
2013-02-04 22:21:00,13.0,11.0,-100.00,ENE,65,1.0,2.0,89,0.00,,,-99.99,,2013-02-05 04:21:00,
2013-02-04 22:32:00,13.0,11.0,-100.00,East,95,2.0,3.0,90,0.00,,,-99.99,,2013-02-05 04:32:00,
2013-02-04 22:42:00,12.0,10.0,-100.00,East,80,2.0,4.0,90,0.00,,,-99.99,,2013-02-05 04:42:00,
2013-02-04 22:52:00,12.0,10.0,-100.00,SSE,160,0.0,3.0,91,0.00,,,-99.99,,2013-02-05 04:52:00,
2013-02-04 23:02:00,11.0,9.0,-100.00,SE,130,2.0,2.0,91,0.00,,,-99.99,,2013-02-05 05:02:00,
2013-02-04 23:11:00,12.0,10.0,-100.00,ESE,105,2.0,4.0,91,0.00,,,-99.99,,2013-02-05 05:11:00,
2013-02-04 23:21:00,13.0,11.0,-100.00,ESE,120,1.0,4.0,92,0.00,,,-99.99,,2013-02-05 05:21:00,
2013-02-04 23:32:00,13.0,12.0,-100.00,ESE,120,3.0,4.0,93,0.00,,,-99.99,,2013-02-05 05:32:00,
2013-02-04 23:42:00,14.0,12.0,-100.00,SE,135,4.0,5.0,93,0.00,,,-99.99,,2013-02-05 05:42:00,
2013-02-04 23:52:00,14.0,13.0,-100.00,SE,145,3.0,5.0,93,0.00,,,-99.99,,2013-02-05 05:52:00,